Location: Bothwell
(42.3833°S, 147.0000°E)
Time: 21:39:18
(UTC+10:00)

CUTE 1.7 + AOD 2 - Pass Details

Date: 02 February 2023
Orbit: 584 x 601 km, 97.7° (Epoch: 02 April)

Event Time Altitude Azimuth Distance (km) Brightness Sun altitude
Exits shadow 04:35:53 31° 315° (NW) 1,052 ? -16.2°
Maximum altitude 04:37:04 38° 278° (W) 920 ? -16.0°
Drops below altitude 10° 04:41:01 10° 209° (SSW) 1,946 ? -15.5°
Sets 04:43:20 0° 200° (SSW) 2,859 ? -15.2°
